Location: Baix
(44.7118°N, 4.7648°E)
Time: 19:26:29
(UTC+00:00)

MOZ.5/SAFIR/RUBIN 5/SL-8 - Pass Details

Date: 07 August 2020
Orbit: 677 x 706 km, 98.1° (Epoch: 24 September)

Event Time Altitude Azimuth Distance (km) Brightness Sun altitude
Exits shadow 01:36:55 47° 280° (W) 930 4.2 -24.0°
Drops below altitude 10° 01:41:05 10° 336° (NNW) 2,177 6.8 -23.6°
Sets 01:43:25 0° 342° (NNW) 3,096 7.7 -23.4°
